Regional Weather Roundup
Issued by NWS

Home | Current Version | Previous Version | Text Only | Print | Product List | Glossary Off
Versions: 1 2 3 4 5 6 7 8 9 10 11 12 13 14 15 16 17 18 19 20 21 22 23 24 25 26 27 28 29 30 31 32 33 34 35 36 37 38 39 40 41 42 43 44 45 46 47 48 49 50

000
ASUS45 KSLC 250210
RWRUT

UTAH REGIONAL WEATHER ROUNDUP
NATIONAL WEATHER SERVICE SALT LAKE CITY UT
800 PM MDT THU JUL 24 2014

UTZ001>011-023>025-250300-

NORTHERN UTAH

CITY           SKY/WX    TMP DP  RH WIND       PRES   REMARKS
HILL AFB       CLEAR     88  33  14 N5        30.00S
LOGAN          CLEAR     82  44  26 N14       30.00S
OGDEN          CLEAR     90  32  12 N6        29.96F
PROVO AIRPORT  PTCLDY    82  55  39 NW10      29.96S
SALT LAKE CITY MOCLDY    90  33  13 N8        29.94F
VERNAL         CLEAR     84  52  33 SE7       30.03S
WENDOVER       CLEAR     91  32  12 E12       29.96S
HEBER CITY     CLEAR     79  46  31 CALM      30.03S
WEST JORDAN    CLEAR     90  46  22 NW8       29.99S

$$

UTZ012>022-026-027-250300-

SOUTHERN UTAH

CITY           SKY/WX    TMP DP  RH WIND       PRES   REMARKS
BRYCE CANYON   CLEAR     81  40  23 SW12      30.27S
CEDAR CITY     CLEAR     88  35  15 SW15      30.07R
MILFORD        CLEAR     94  34  12 SW18G25   29.98S
MOAB/CYNLANDS  CLEAR     93  44  18 S12       29.96F
PRICE          CLEAR     88  43  20 S9        30.09R
ST GEORGE      CLEAR    106  45  12 SW15      29.83S HX 101
KANAB            N/A     90  48  24 S18G29    30.07R

$$

REGIONAL REPORTS     COLORADO/ARIZONA

CITY           SKY/WX    TMP DP  RH WIND       PRES   REMARKS
CRAIG, CO      MOCLDY    73  47  39 SW13      30.13F
GRAND JUNCTION PTCLDY    82  50  32 S29G35    30.05R
RIFLE          CLOUDY    78  50  37 E16       30.11R
MONTROSE       MOCLDY    74  54  49 SE18      30.20F
CORTEZ         PTCLDY    79  51  37 S16       30.18R
PAGE, AZ       CLOUDY    94  48  20 S13G23    29.99R HX  90
GRAND CANYON   CLOUDY    64  59  83 VRB7      30.28F
KINGMAN        MOCLDY    94  52  24 SE29G35   29.94S HX  91
FLAGSTAFF      MOCLDY    65  56  72 CALM      30.30F

$$

REGIONAL REPORTS    NEVADA/IDAHO/WYOMING

CITY           SKY/WX    TMP DP  RH WIND       PRES   REMARKS
LAS VEGAS, NV  PTCLDY   107  31   7 SW16G26   29.71S HX 100
ELY            CLEAR     89  19   7 S12G23    30.07S
ELKO           SUNNY     86  23  10 NW10      30.03F
POCATELLO, ID  CLEAR     74  36  25 SW17      30.08S
BURLEY         CLEAR     70  35  27 W12G18    30.07F
EVANSTON, WY   PTCLDY    78  30  17 W14       30.19S
ROCK SPRINGS   PTCLDY    83  25  12 W21G31    30.13R

$$


USA.gov is the U.S. government's official web portal to all federal, state and local government web resources and services.